| time (UTC) | temp C | wind direction | speed KPH | gust KPH | rain 1hr cm | rain 24hr cm | rain mn cm | humidity % | barometer mb |
| 20260507103038 | 20 | 37 | 20.9 | 51.5 | 0.00 | 0.00 | 0.00 | 65 | 1012.6 |
| 20260507101537 | 20 | 40 | 30.6 | 48.3 | 0.00 | 0.00 | 0.00 | 65 | 1012.4 |
| 20260507100035 | 20 | 36 | 24.1 | 40.2 | 0.00 | 0.00 | 0.00 | 64 | 1012.5 |
| 20260507094536 | 20 | 49 | 17.7 | 43.5 | 0.00 | 0.00 | 0.00 | 62 | 1012.6 |
| 20260507093028 | 20 | 28 | 24.1 | 49.9 | 0.00 | 0.00 | 0.00 | 62 | 1012.7 |
| 20260507091532 | 20 | 65 | 22.5 | 43.5 | 0.00 | 0.00 | 0.00 | 65 | 1012.8 |
| 20260507090025 | 19 | 66 | 24.1 | 38.6 | 0.00 | 0.00 | 0.00 | 67 | 1012.9 |
| 20260507084522 | 19 | 52 | 16.1 | 46.7 | 0.00 | 0.00 | 0.00 | 69 | 1012.7 |
| 20260507083022 | 18 | 64 | 25.7 | 46.7 | 0.00 | 0.00 | 0.00 | 71 | 1012.7 |
| 20260507081523 | 19 | 63 | 20.9 | 43.5 | 0.00 | 0.00 | 0.00 | 70 | 1012.3 |
| 20260507080020 | 18 | 57 | 25.7 | 43.5 | 0.00 | 0.00 | 0.00 | 70 | 1012.3 |
| 20260507074518 | 18 | 42 | 20.9 | 43.5 | 0.00 | 0.00 | 0.00 | 73 | 1012.6 |
| 20260507073017 | 18 | 46 | 20.9 | 41.8 | 0.00 | 0.00 | 0.00 | 73 | 1012.6 |
| 20260507071519 | 18 | 21 | 19.3 | 40.2 | 0.00 | 0.00 | 0.00 | 74 | 1012.8 |
| 20260507070026 | 18 | 74 | 16.1 | 33.8 | 0.00 | 0.00 | 0.00 | 74 | 1012.8 |
| 20260507064515 | 18 | 76 | 16.1 | 32.2 | 0.00 | 0.00 | 0.00 | 76 | 1013.0 |
| 20260507063011 | 17 | 60 | 20.9 | 33.8 | 0.00 | 0.00 | 0.00 | 81 | 1013.0 |
| 20260507061509 | 17 | 30 | 17.7 | 32.2 | 0.00 | 0.00 | 0.00 | 84 | 1012.9 |
| 20260507060012 | 17 | 28 | 16.1 | 37.0 | 0.00 | 0.00 | 0.00 | 85 | 1013.1 |
| 20260507054505 | 17 | 66 | 19.3 | 32.2 | 0.00 | 0.00 | 0.00 | 85 | 1013.2 |
| 20260507053005 | 17 | 66 | 12.9 | 30.6 | 0.00 | 0.00 | 0.00 | 85 | 1013.1 |
| 20260507051503 | 17 | 68 | 12.9 | 22.5 | 0.00 | 0.00 | 0.00 | 85 | 1013.1 |
| 20260507050006 | 17 | 32 | 12.9 | 25.7 | 0.00 | 0.00 | 0.00 | 85 | 1013.0 |
| 20260507044628 | 16 | 41 | 19.3 | 29.0 | 0.00 | 0.00 | 0.00 | 84 | 1012.8 |
| 20260507043059 | 16 | 53 | 14.5 | 32.2 | 0.00 | 0.00 | 0.00 | 85 | 1012.6 |
| 20260507041557 | 16 | 44 | 16.1 | 27.4 | 0.00 | 0.00 | 0.00 | 84 | 1012.8 |
| 20260507040058 | 17 | 59 | 11.3 | 24.1 | 0.00 | 0.00 | 0.00 | 81 | 1012.7 |
| 20260507034554 | 17 | 58 | 6.4 | 17.7 | 0.00 | 0.00 | 0.00 | 80 | 1013.0 |
| 20260507033102 | 17 | 40 | 6.4 | 14.5 | 0.00 | 0.00 | 0.00 | 80 | 1013.2 |
| 20260507031558 | 17 | 75 | 0.0 | 1.6 | 0.00 | 0.00 | 0.00 | 79 | 1013.2 |
| 20260507030106 | 17 | 49 | 0.0 | 1.6 | 0.00 | 0.00 | 0.00 | 74 | 1013.3 |
| 20260507024606 | 17 | 82 | 0.0 | 20.9 | 0.00 | 0.00 | 0.00 | 74 | 1013.1 |
| 20260507023048 | 17 | 40 | 0.0 | 1.6 | 0.00 | 0.00 | 0.00 | 74 | 1012.7 |
| 20260507021554 | 17 | 75 | 3.2 | 14.5 | 0.00 | 0.00 | 0.00 | 70 | 1012.6 |
| 20260507020055 | 17 | 80 | 0.0 | 0.0 | 0.00 | 0.00 | 0.00 | 66 | 1012.6 |
| 20260507014553 | 17 | 96 | 0.0 | 1.6 | 0.00 | 0.00 | 0.00 | 69 | 1012.7 |
| 20260507013043 | 17 | 71 | 0.0 | 0.0 | 0.00 | 0.00 | 0.00 | 73 | 1012.8 |
| 20260507011546 | 17 | 61 | 0.0 | 1.6 | 0.00 | 0.00 | 0.00 | 73 | 1013.0 |
| 20260507010044 | 17 | 76 | 0.0 | 6.4 | 0.00 | 0.00 | 0.00 | 75 | 1013.3 |
| 20260507004537 | 17 | 72 | 0.0 | 12.9 | 0.00 | 0.00 | 0.00 | 77 | 1013.1 |
| 20260507003036 | 17 | 66 | 0.0 | 3.2 | 0.00 | 0.00 | 0.00 | 77 | 1013.3 |
| 20260507001536 | 17 | 51 | 0.0 | 12.9 | 0.00 | 0.00 | 0.00 | 76 | 1013.6 |
| 20260507000034 | 17 | 78 | 0.0 | 1.6 | 0.00 | 0.00 | 0.00 | 77 | 1013.9 |
| 20260506234531 | 17 | 68 | 0.0 | 1.6 | 0.00 | 0.00 | 0.00 | 78 | 1014.0 |
| 20260506233031 | 17 | 61 | 0.0 | 1.6 | 0.00 | 0.00 | 0.00 | 79 | 1013.9 |
| 20260506231528 | 17 | 74 | 0.0 | 0.0 | 0.00 | 0.00 | 0.00 | 80 | 1014.0 |
| 20260506230027 | 17 | 83 | 0.0 | 9.7 | 0.00 | 0.00 | 0.00 | 80 | 1014.1 |
| 20260506224526 | 17 | 71 | 1.6 | 14.5 | 0.00 | 0.00 | 0.00 | 80 | 1014.0 |
| 20260506223023 | 17 | 53 | 0.0 | 1.6 | 0.00 | 0.00 | 0.00 | 81 | 1014.2 |
| 20260506221521 | 17 | 49 | 1.6 | 11.3 | 0.00 | 0.00 | 0.00 | 81 | 1014.5 |
| 20260506220020 | 17 | 54 | 1.6 | 16.1 | 0.00 | 0.00 | 0.00 | 82 | 1014.3 |
| 20260506214519 | 17 | 70 | 0.0 | 16.1 | 0.00 | 0.00 | 0.00 | 82 | 1014.4 |
| 20260506213018 | 17 | 44 | 3.2 | 16.1 | 0.00 | 0.00 | 0.00 | 83 | 1014.6 |
| 20260506211522 | 17 | 53 | 8.0 | 16.1 | 0.00 | 0.00 | 0.00 | 83 | 1014.7 |
| 20260506210019 | 17 | 91 | 0.0 | 1.6 | 0.00 | 0.00 | 0.00 | 84 | 1014.6 |
| 20260506204517 | 17 | 34 | 8.0 | 16.1 | 0.00 | 0.00 | 0.00 | 84 | 1014.2 |
| 20260506203017 | 17 | 65 | 8.0 | 19.3 | 0.00 | 0.00 | 0.00 | 84 | 1013.8 |
| 20260506201519 | 17 | 105 | 3.2 | 20.9 | 0.00 | 0.00 | 0.00 | 83 | 1013.8 |
| 20260506200015 | 17 | 51 | 6.4 | 27.4 | 0.00 | 0.00 | 0.00 | 83 | 1013.5 |
| 20260506194511 | 17 | 45 | 9.7 | 19.3 | 0.00 | 0.00 | 0.00 | 82 | 1013.2 |
| 20260506193009 | 17 | 71 | 8.0 | 17.7 | 0.00 | 0.00 | 0.00 | 82 | 1014.4 |
| 20260506191509 | 17 | 55 | 0.0 | 14.5 | 0.00 | 0.00 | 0.00 | 82 | 1014.6 |
| 20260506190007 | 17 | 65 | 0.0 | 8.0 | 0.00 | 0.00 | 0.00 | 83 | 1014.6 |
| 20260506184506 | 17 | 74 | 0.0 | 8.0 | 0.00 | 0.00 | 0.00 | 83 | 1014.5 |
| 20260506183006 | 17 | 36 | 0.0 | 8.0 | 0.00 | 0.00 | 0.00 | 83 | 1014.7 |
| 20260506181505 | 17 | 82 | 0.0 | 8.0 | 0.00 | 0.00 | 0.00 | 83 | 1014.7 |
| 20260506180005 | 17 | 78 | 0.0 | 4.8 | 0.00 | 0.00 | 0.00 | 82 | 1014.6 |
| 20260506174504 | 17 | 72 | 1.6 | 8.0 | 0.00 | 0.00 | 0.00 | 82 | 1014.6 |
| 20260506173004 | 18 | 135 | 0.0 | 6.4 | 0.00 | 0.00 | 0.00 | 82 | 1014.4 |
| 20260506171503 | 18 | 67 | 1.6 | 9.7 | 0.00 | 0.00 | 0.00 | 82 | 1014.3 |
| 20260506170003 | 18 | 84 | 3.2 | 8.0 | 0.00 | 0.00 | 0.00 | 81 | 1014.2 |
| 20260506164607 | 18 | 84 | 0.0 | 9.7 | 0.00 | 0.00 | 0.00 | 80 | 1014.3 |
| 20260506164501 | 18 | 49 | 0.0 | 9.7 | 0.00 | 0.00 | 0.00 | 80 | 1014.3 |
| 20260506163107 | 18 | 59 | 1.6 | 6.4 | 0.00 | 0.00 | 0.00 | 79 | 1014.4 |
| 20260506161641 | 18 | 84 | 0.0 | 8.0 | 0.00 | 0.00 | 0.00 | 79 | 1014.4 |
| 20260506160111 | 18 | 52 | 3.2 | 9.7 | 0.00 | 0.00 | 0.00 | 79 | 1014.4 |
| 20260506154600 | 18 | 59 | 0.0 | 8.0 | 0.00 | 0.00 | 0.00 | 78 | 1014.6 |
| 20260506153059 | 18 | 61 | 3.2 | 9.7 | 0.00 | 0.00 | 0.00 | 76 | 1014.6 |
| 20260506151557 | 19 | 44 | 0.0 | 4.8 | 0.00 | 0.00 | 0.00 | 75 | 1014.5 |
| 20260506150057 | 19 | 59 | 1.6 | 6.4 | 0.00 | 0.00 | 0.00 | 74 | 1014.8 |
| 20260506144555 | 20 | 46 | 1.6 | 9.7 | 0.00 | 0.00 | 0.00 | 73 | 1014.6 |
| 20260506143055 | 21 | 153 | 0.0 | 6.4 | 0.00 | 0.00 | 0.00 | 70 | 1014.8 |
| 20260506141554 | 20 | 87 | 0.0 | 9.7 | 0.00 | 0.00 | 0.00 | 72 | 1014.9 |
| 20260506140054 | 20 | 114 | 0.0 | 6.4 | 0.00 | 0.00 | 0.00 | 71 | 1015.0 |
| 20260506134553 | 20 | 83 | 0.0 | 8.0 | 0.00 | 0.00 | 0.00 | 73 | 1014.9 |
| 20260506133052 | 20 | 38 | 0.0 | 8.0 | 0.00 | 0.00 | 0.00 | 72 | 1014.8 |
| 20260506131558 | 21 | 86 | 0.0 | 14.5 | 0.00 | 0.00 | 0.00 | 70 | 1015.0 |
| 20260506130112 | 21 | 64 | 0.0 | 6.4 | 0.00 | 0.00 | 0.00 | 70 | 1015.0 |
| 20260506124557 | 20 | 130 | 1.6 | 9.7 | 0.00 | 0.00 | 0.00 | 71 | 1015.0 |
| 20260506123050 | 20 | 99 | 0.0 | 8.0 | 0.00 | 0.00 | 0.00 | 72 | 1015.3 |
| 20260506121549 | 20 | 67 | 0.0 | 9.7 | 0.00 | 0.00 | 0.00 | 72 | 1015.5 |
| 20260506120048 | 20 | 86 | 0.0 | 9.7 | 0.00 | 0.00 | 0.00 | 72 | 1015.5 |
| 20260506114550 | 21 | 79 | 0.0 | 8.0 | 0.00 | 0.00 | 0.00 | 69 | 1015.6 |
| 20260506113053 | 20 | 133 | 0.0 | 6.4 | 0.00 | 0.00 | 0.00 | 71 | 1015.6 |
| 20260506111546 | 20 | 46 | 0.0 | 8.0 | 0.00 | 0.00 | 0.00 | 72 | 1015.6 |
| 20260506110054 | 21 | 136 | 0.0 | 4.8 | 0.00 | 0.00 | 0.00 | 71 | 1015.5 |
| 20260506104551 | 21 | 107 | 0.0 | 8.0 | 0.00 | 0.00 | 0.00 | 71 | 1015.5 |